Wind_Speed
14 11 15 13 6 7 5 3 7 9 12 13 18 16 13 11 11 10 8 10 7 7 7 7 7 7 7 4 3 3 7 8 6 6 7 9 13 17 19 20 20 19 19 19 18 18 18 18 17
16 14 12 11 6 7 9 7 8 7 8 12 11 15 14 16 11 12 13 12 11 9 6 7 9 9 8 8 5 3 6 5 4 4 6 9 12 15 17 19 20 19 19 19 19 19 18 19 19
17 17 12 11 11 14 14 8 1 4 7 8 7 8 12 18 14 14 15 16 15 12 10 8 11 11 9 9 7 5 4 2 1 3 5 8 11 13 17 19 21 20 18 18 18 19 19 19 19
18 18 13 12 15 16 14 16 10 1 3 7 11 11 16 18 12 13 16 18 16 14 10 8 11 11 10 10 10 8 6 3 1 2 4 7 10 13 17 18 18 18 18 18 18 19 19 19 18
20 20 16 15 14 16 17 12 10 3 2 6 8 12 13 16 8 11 12 15 15 11 10 8 10 10 9 10 10 9 7 5 3 4 5 7 10 15 17 18 18 19 18 17 16 17 19 17 17
21 23 20 18 16 16 14 8 11 8 9 4 7 10 15 18 11 10 9 12 13 11 9 6 4 5 8 8 9 8 7 6 6 6 8 10 12 14 16 18 19 19 18 16 15 15 16 16 15
22 26 23 21 18 17 16 13 12 13 9 8 8 13 17 17 10 4 9 11 11 16 15 11 7 6 6 9 9 10 9 8 8 8 10 12 14 17 21 20 21 21 20 18 14 13 13 14 14
18 27 27 24 20 17 17 16 17 19 18 14 20 21 24 20 15 11 12 13 12 15 17 15 13 12 10 8 10 11 11 10 10 10 12 13 17 17 17 19 21 20 21 18 16 14 12 13 13
15 23 28 28 25 19 20 22 24 23 24 26 27 28 23 16 16 10 13 14 13 15 18 20 19 19 15 12 13 12 12 12 13 13 15 16 20 17 18 18 18 19 19 20 18 18 16 13 12
11 17 28 30 31 28 23 26 28 28 25 22 23 24 16 16 15 17 18 16 12 12 20 16 20 20 20 19 18 17 16 16 15 15 17 19 21 21 22 21 17 19 20 21 21 20 19 15 13
11 17 28 35 36 32 29 29 30 30 27 23 24 19 14 16 15 17 14 11 11 16 15 14 15 21 23 22 23 22 21 20 17 17 19 22 26 25 21 20 19 20 21 21 23 24 20 16 14
13 19 21 28 33 34 32 31 32 31 30 26 29 25 16 16 15 17 15 10 11 12 16 17 16 9 15 21 22 24 23 20 21 23 24 26 26 23 23 23 19 22 21 21 23 24 20 14 14
9 8 13 18 21 26 28 31 35 33 32 32 32 28 18 15 16 15 14 12 7 11 12 12 19 7 9 11 14 21 24 25 26 25 26 24 22 23 24 23 21 22 22 22 22 23 20 18 13
10 8 10 14 19 19 22 26 28 31 33 37 36 26 24 19 19 19 17 16 13 10 6 7 12 9 7 12 15 18 20 23 23 22 21 20 20 21 23 23 23 24 23 20 20 22 18 22 20
10 11 14 20 21 21 21 23 24 27 28 28 29 26 24 20 21 22 19 17 15 11 12 12 6 7 6 12 13 16 18 21 21 19 17 18 20 21 22 23 22 22 22 19 19 20 20 20 23
12 12 16 17 19 21 20 22 25 25 26 25 28 31 26 24 24 24 24 19 17 18 12 10 11 11 19 22 16 14 16 18 20 21 19 20 20 21 23 24 25 22 22 21 21 21 20 20 21
16 17 18 21 23 26 25 26 26 29 28 27 29 33 32 29 27 27 26 24 19 19 19 9 11 8 13 18 20 22 23 19 20 23 24 24 25 26 25 25 26 26 25 26 25 24 22 24 23
24 24 22 24 30 31 31 31 31 31 32 31 30 32 34 34 32 31 28 25 28 25 23 19 12 16 18 18 23 26 26 27 26 26 28 30 31 31 28 27 29 31 28 29 29 26 26 26 28
28 28 26 26 30 35 34 35 34 33 31 29 31 33 34 35 35 35 34 33 33 29 28 26 24 18 25 26 24 26 28 31 32 30 32 35 33 31 28 28 31 31 27 27 25 27 26 30 34
26 25 25 26 28 31 32 35 33 32 31 30 34 36 35 35 35 35 33 33 34 36 34 32 33 25 27 30 32 32 30 33 36 39 38 34 36 34 31 31 33 32 27 27 26 25 25 29 37
27 25 26 26 28 30 29 31 31 31 30 30 30 31 34 34 35 36 36 37 38 39 39 44 43 35 32 36 39 40 40 35 37 39 40 38 39 39 35 36 36 36 31 27 27 22 20 28 33
27 28 28 28 31 30 31 33 32 31 30 32 34 34 34 34 37 40 42 43 42 39 42 47 60 32 40 43 44 46 47 44 42 40 39 36 44 43 35 34 32 30 27 23 24 18 21 21 25
30 30 32 32 33 34 33 35 36 34 29 30 33 34 34 35 35 41 46 50 52 49 46 47 46 49 52 50 49 49 53 53 43 45 38 28 33 29 30 38 33 24 29 28 24 22 24 22 20
34 32 34 34 35 39 37 38 40 37 35 32 30 32 34 35 36 37 40 43 46 49 53 55 52 51 58 58 51 56 39 47 49 42 35 30 33 32 34 36 33 33 34 31 29 27 27 26 25
36 35 36 38 38 39 39 42 41 39 38 34 33 35 35 35 37 37 38 39 45 49 51 54 54 54 59 53 52 54 51 53 52 50 43 36 38 36 38 38 37 38 37 35 33 29 29 26 26
36 35 36 41 41 41 40 44 41 40 38 37 37 37 39 40 40 38 38 41 45 51 51 55 56 60 61 60 58 57 61 58 61 59 51 47 44 42 41 41 42 40 39 38 38 34 31 28 25
36 36 35 39 42 44 44 45 44 42 38 36 37 39 40 40 41 39 40 41 44 47 51 57 59 61 63 64 69 69 65 58 67 70 64 52 51 52 49 44 43 41 39 39 37 35 33 28 25
38 37 38 38 43 46 47 47 44 42 39 38 40 41 41 41 42 42 42 41 44 46 48 49 47 54 53 56 49 39 53 61 60 71 59 55 56 54 59 51 47 44 42 39 36 35 34 29 25
43 42 41 40 44 45 49 48 44 43 43 42 41 41 43 43 43 42 42 42 44 44 46 43 42 44 42 46 52 62 54 50 42 55 58 55 56 58 58 57 52 50 48 43 40 37 35 32 26
48 46 43 42 43 46 49 50 45 44 45 44 41 41 42 41 41 40 41 42 44 45 45 44 41 43 41 42 43 46 52 47 46 38 40 63 63 61 59 61 58 55 53 49 44 39 36 35 32
Wind_Direction
195 178 172 169 200 221 224 194 185 131 103 67 46 39 34 25 19 17 355 354 341 321 303 270 246 247 256 237 179 108 87 78 53 23 9 354 357 2 0 357 353 349 347 342 337 335 332 328 329
190 179 184 197 196 256 222 174 122 145 107 85 51 25 28 16 1 357 344 334 331 320 302 262 255 247 244 242 189 139 100 75 35 6 350 357 1 359 353 349 345 342 339 337 333 329 328 327 328
189 177 188 181 200 231 244 234 223 106 114 95 56 23 24 13 349 340 333 328 333 332 309 284 256 259 253 247 217 161 139 125 38 349 341 354 356 353 350 348 343 339 339 337 331 327 326 326 324
191 178 182 180 194 229 247 252 256 12 102 67 21 12 7 12 355 323 327 330 332 337 324 271 250 249 246 239 218 190 177 179 222 299 319 332 340 335 335 334 336 339 337 332 332 331 329 325 323
191 180 178 178 207 228 243 266 252 199 214 51 0 0 340 337 335 350 329 319 315 338 350 293 242 236 244 240 220 204 197 208 232 260 286 314 323 334 334 326 327 335 336 332 331 324 322 322 322
188 182 180 188 205 225 239 260 252 238 236 278 315 325 320 319 336 323 321 314 322 325 343 340 284 238 243 230 229 230 227 243 250 262 285 303 318 326 331 322 322 325 326 326 327 326 321 320 322
196 187 178 183 207 234 240 254 234 246 250 279 295 307 305 317 323 291 277 298 320 323 320 330 331 301 257 237 231 238 243 247 253 264 281 298 314 319 313 314 311 311 319 318 320 321 317 313 314
201 196 189 191 209 233 242 242 247 265 280 305 314 312 310 313 319 261 280 295 317 312 311 310 316 315 295 271 252 254 259 257 254 262 282 294 305 313 311 302 314 303 304 305 310 309 311 308 307
195 202 199 198 208 219 242 245 255 266 274 289 311 316 302 298 314 332 317 316 308 309 312 297 294 297 291 272 259 252 252 255 256 266 277 281 297 298 304 309 312 309 299 295 299 306 304 301 298
193 200 201 208 219 218 231 251 257 267 283 296 306 320 297 291 317 332 339 342 337 329 317 298 285 279 279 278 263 256 252 249 246 251 264 279 285 293 293 294 298 308 299 293 291 297 300 297 291
192 197 206 210 228 233 234 245 258 268 282 295 294 317 304 301 311 320 336 346 309 312 294 332 316 259 263 269 265 256 253 255 256 257 266 273 278 287 286 282 288 299 297 290 288 293 299 297 292
202 214 221 226 231 236 242 248 258 268 278 289 289 300 293 296 303 308 322 320 317 306 317 337 356 287 265 259 254 255 252 254 254 257 263 272 278 280 275 281 287 291 293 287 285 287 294 291 287
219 228 237 241 249 250 253 256 256 262 273 280 281 290 294 289 295 307 319 319 322 319 331 342 344 338 279 283 278 265 259 255 256 263 270 274 274 273 273 276 280 285 289 289 279 285 289 291 280
215 210 221 235 247 253 256 259 263 262 263 267 270 282 291 301 302 304 307 309 316 313 310 314 322 282 262 263 252 254 260 263 263 262 267 269 271 276 280 280 283 283 287 286 281 286 289 289 289
200 212 221 225 230 232 239 243 245 247 253 261 271 282 285 291 293 295 297 302 307 313 305 292 283 240 246 282 274 269 262 266 266 263 264 267 272 276 280 284 284 286 287 286 282 280 282 283 283
203 210 231 240 247 249 254 255 254 259 268 276 277 280 283 286 288 287 290 288 293 301 312 300 256 276 273 268 282 268 269 273 273 269 268 269 271 275 277 281 283 284 286 283 285 279 282 282 283
239 232 237 252 254 260 263 262 261 268 272 275 275 279 285 285 282 284 283 288 289 292 300 300 267 250 267 272 279 275 262 261 267 273 269 266 265 266 269 272 276 276 280 282 288 289 284 286 287
263 261 250 250 261 259 260 260 261 265 273 275 277 280 284 287 282 278 275 269 272 272 272 273 242 250 251 280 279 271 270 265 257 256 266 267 263 263 266 272 275 275 279 286 289 289 289 289 286
264 267 269 260 257 267 270 272 273 272 268 268 273 274 277 280 281 278 286 288 276 274 269 267 264 245 251 252 258 265 270 270 266 262 261 269 269 269 266 265 267 271 271 273 278 283 288 291 289
268 271 274 273 270 270 271 272 278 285 286 279 272 276 275 273 277 280 281 282 286 282 276 267 266 254 237 252 262 260 263 261 264 266 268 271 270 269 270 268 266 266 266 270 277 280 288 297 298
268 272 273 277 276 279 280 280 282 283 284 283 278 272 275 277 275 276 278 276 278 281 280 270 260 258 253 251 258 264 265 260 260 268 272 271 267 263 258 262 268 269 269 276 279 274 298 306 305
271 273 273 279 282 283 282 284 283 280 280 280 281 278 275 273 273 276 278 278 280 279 281 271 270 249 260 257 260 263 263 262 262 264 261 261 264 259 258 264 270 270 275 288 288 302 304 329 322
273 274 279 281 281 282 284 282 280 276 272 271 272 273 273 271 267 262 267 272 275 275 275 275 273 275 258 254 254 257 249 250 249 255 254 259 275 277 274 265 286 294 286 282 289 292 297 303 301
275 275 275 278 279 280 284 282 280 281 286 282 275 272 270 269 272 273 269 268 268 270 269 271 272 271 272 255 249 257 271 263 273 284 286 288 270 270 274 281 288 286 283 284 287 289 294 295 293
274 275 277 276 278 283 282 281 283 286 289 288 284 280 277 273 274 276 274 272 269 267 267 270 269 265 268 259 266 270 274 276 273 282 282 279 279 270 268 272 272 278 282 282 282 283 283 285 288
272 275 276 280 280 279 279 279 283 284 290 291 288 286 285 284 282 282 279 280 276 269 269 270 269 269 272 279 273 274 269 271 271 274 273 276 277 274 273 271 269 273 275 278 278 277 277 279 282
273 275 275 276 279 282 283 283 285 287 289 291 288 286 287 287 286 286 285 282 281 277 275 270 268 269 273 277 273 276 282 278 272 273 265 269 272 273 275 272 269 268 270 273 274 277 276 277 281
274 274 274 274 276 279 283 284 286 289 289 291 291 291 289 287 286 285 286 286 281 281 284 283 284 284 283 278 276 282 275 277 272 265 258 262 264 268 275 270 268 268 269 274 275 280 281 279 276
272 271 272 273 276 282 283 282 289 294 293 292 291 291 291 292 291 290 291 289 287 285 285 287 287 283 277 275 285 268 282 275 289 253 259 261 261 266 265 265 264 265 268 271 275 279 277 274 268
277 277 277 277 280 279 281 284 293 294 292 293 294 292 291 292 292 292 290 288 287 287 289 292 286 282 279 278 277 284 288 280 286 275 276 266 259 266 264 264 262 264 265 267 272 274 266 266 266
Height
5911 5914 5914 5915 5918 5916 5918 5919 5918 5917 5918 5920 5921 5922 5922 5923 5924 5927 5925 5925 5925 5924 5925 5925 5926 5927 5928 5927 5927 5928 5929 5930 5931 5932 5932 5931 5931 5930 5929 5928 5927 5926 5924 5923 5921 5920 5919 5918 5916
5910 5913 5914 5916 5917 5916 5915 5917 5919 5919 5918 5919 5920 5921 5920 5921 5923 5923 5924 5924 5924 5923 5924 5925 5926 5927 5927 5928 5927 5928 5929 5930 5930 5931 5931 5931 5930 5930 5929 5928 5927 5926 5924 5922 5920 5918 5917 5916 5914
5909 5912 5915 5916 5917 5913 5914 5916 5919 5920 5919 5919 5920 5920 5919 5920 5920 5921 5922 5922 5923 5923 5923 5924 5925 5926 5927 5928 5927 5927 5928 5928 5929 5929 5929 5929 5929 5929 5928 5927 5926 5924 5923 5921 5919 5916 5915 5913 5912
5908 5912 5915 5916 5914 5912 5914 5916 5920 5920 5920 5918 5918 5918 5920 5921 5921 5922 5921 5922 5921 5921 5921 5921 5922 5923 5924 5925 5925 5925 5926 5927 5927 5928 5928 5928 5928 5928 5927 5926 5925 5923 5922 5920 5917 5915 5913 5912 5910
5907 5911 5913 5915 5913 5912 5913 5916 5919 5919 5918 5917 5917 5917 5919 5920 5922 5921 5921 5921 5921 5921 5920 5920 5920 5920 5922 5924 5924 5925 5925 5926 5927 5927 5928 5928 5927 5927 5926 5925 5924 5922 5920 5918 5916 5914 5912 5910 5908
5906 5910 5913 5914 5913 5912 5913 5915 5916 5918 5917 5917 5917 5917 5918 5919 5921 5921 5921 5921 5922 5922 5921 5921 5920 5920 5921 5922 5924 5925 5925 5926 5927 5927 5927 5927 5926 5925 5924 5922 5921 5920 5918 5916 5915 5912 5910 5907 5906
5906 5908 5912 5913 5913 5911 5912 5915 5914 5915 5917 5916 5916 5916 5917 5919 5920 5919 5920 5921 5922 5923 5923 5922 5921 5921 5921 5921 5922 5924 5924 5924 5926 5926 5926 5926 5925 5924 5923 5920 5918 5917 5915 5914 5912 5910 5908 5906 5904
5904 5907 5909 5911 5912 5911 5912 5913 5914 5914 5915 5915 5916 5916 5917 5917 5917 5918 5919 5920 5920 5921 5922 5923 5922 5923 5923 5921 5922 5922 5924 5924 5924 5924 5925 5924 5923 5922 5920 5918 5915 5913 5911 5910 5909 5908 5906 5905 5901
5902 5906 5907 5909 5910 5910 5909 5911 5913 5914 5915 5917 5917 5917 5916 5915 5914 5916 5916 5916 5917 5918 5919 5919 5920 5921 5922 5920 5920 5920 5920 5920 5921 5922 5922 5921 5920 5919 5917 5916 5913 5910 5908 5906 5906 5905 5903 5903 5901
5901 5903 5906 5906 5906 5908 5908 5908 5910 5913 5914 5915 5916 5914 5913 5913 5913 5913 5913 5913 5914 5915 5916 5913 5915 5916 5918 5918 5918 5918 5918 5917 5917 5917 5918 5917 5916 5915 5914 5913 5910 5908 5905 5904 5902 5902 5901 5900 5900
5899 5900 5901 5902 5902 5906 5908 5908 5908 5909 5911 5911 5912 5912 5911 5911 5911 5911 5911 5911 5912 5911 5910 5910 5908 5908 5910 5912 5914 5914 5914 5914 5915 5914 5914 5912 5912 5911 5909 5908 5907 5905 5902 5901 5899 5898 5898 5897 5898
5896 5897 5899 5900 5902 5905 5906 5906 5906 5906 5907 5908 5908 5908 5908 5908 5908 5908 5909 5909 5908 5907 5906 5905 5902 5902 5904 5906 5908 5910 5911 5911 5911 5910 5909 5908 5907 5906 5905 5904 5902 5901 5899 5898 5896 5895 5895 5894 5895
5896 5897 5899 5900 5901 5902 5903 5903 5903 5903 5904 5903 5902 5903 5905 5906 5906 5906 5906 5906 5906 5905 5903 5902 5901 5899 5902 5903 5903 5905 5906 5906 5905 5905 5904 5903 5901 5901 5901 5899 5897 5896 5895 5894 5892 5891 5891 5891 5891
5895 5896 5897 5898 5898 5899 5899 5900 5901 5900 5898 5898 5898 5901 5902 5903 5902 5903 5903 5904 5904 5903 5901 5901 5900 5899 5900 5900 5901 5901 5902 5902 5901 5900 5900 5899 5897 5896 5895 5894 5893 5893 5891 5890 5890 5889 5888 5886 5886
5892 5893 5893 5893 5893 5893 5893 5895 5895 5893 5894 5894 5893 5896 5899 5900 5899 5898 5899 5899 5899 5900 5899 5898 5898 5899 5898 5898 5898 5898 5898 5898 5898 5896 5895 5894 5893 5891 5891 5889 5889 5888 5887 5887 5886 5884 5884 5885 5884
5890 5891 5890 5890 5890 5890 5891 5892 5891 5891 5892 5893 5891 5889 5893 5895 5895 5895 5893 5895 5894 5894 5895 5894 5894 5893 5893 5894 5894 5894 5894 5894 5894 5893 5891 5889 5888 5887 5886 5886 5884 5882 5881 5881 5881 5880 5880 5881 5881
5887 5888 5888 5888 5887 5886 5887 5887 5887 5886 5888 5889 5888 5884 5885 5887 5890 5890 5889 5888 5889 5889 5889 5891 5890 5889 5890 5890 5891 5891 5890 5889 5888 5889 5887 5885 5883 5881 5881 5881 5879 5878 5877 5878 5877 5878 5878 5876 5877
5882 5884 5885 5885 5881 5880 5880 5881 5882 5882 5882 5881 5882 5881 5880 5880 5881 5881 5882 5880 5878 5878 5879 5882 5882 5881 5881 5884 5885 5886 5885 5884 5882 5880 5879 5878 5877 5876 5876 5876 5872 5870 5873 5874 5873 5872 5872 5873 5873
5876 5877 5879 5879 5878 5873 5873 5873 5873 5875 5877 5877 5876 5875 5875 5875 5874 5873 5873 5874 5873 5870 5872 5875 5875 5875 5875 5875 5875 5876 5875 5874 5871 5868 5866 5868 5869 5869 5869 5867 5863 5863 5865 5867 5867 5865 5866 5867 5867
5870 5871 5872 5872 5870 5869 5869 5867 5867 5867 5868 5870 5869 5869 5869 5869 5868 5867 5867 5866 5867 5867 5866 5866 5867 5867 5867 5867 5867 5866 5866 5864 5861 5859 5860 5860 5863 5862 5861 5859 5856 5857 5858 5859 5860 5861 5861 5860 5859
5863 5865 5864 5864 5863 5861 5862 5862 5862 5861 5861 5860 5861 5861 5860 5860 5860 5859 5859 5860 5860 5860 5859 5854 5852 5853 5855 5856 5855 5854 5854 5854 5850 5850 5850 5853 5854 5855 5852 5850 5851 5852 5852 5854 5852 5853 5854 5854 5852
5858 5858 5858 5857 5856 5856 5855 5855 5855 5855 5855 5853 5851 5851 5851 5851 5851 5850 5849 5849 5851 5852 5849 5844 5833 5839 5844 5843 5844 5843 5843 5842 5840 5842 5840 5842 5843 5839 5841 5841 5839 5843 5845 5845 5845 5844 5846 5848 5847
5852 5852 5850 5849 5848 5847 5849 5848 5846 5847 5849 5847 5845 5843 5842 5841 5840 5841 5841 5839 5841 5841 5842 5835 5836 5837 5835 5831 5831 5832 5826 5823 5826 5827 5826 5831 5832 5832 5833 5830 5836 5834 5838 5838 5838 5838 5840 5842 5842
5843 5844 5843 5841 5840 5839 5840 5839 5837 5838 5839 5839 5839 5835 5832 5832 5831 5831 5830 5829 5829 5830 5830 5829 5825 5823 5820 5817 5820 5819 5803 5813 5817 5814 5819 5825 5829 5827 5827 5827 5828 5831 5832 5833 5833 5832 5834 5835 5836
5836 5835 5834 5832 5832 5831 5830 5828 5829 5830 5829 5829 5827 5825 5824 5823 5821 5820 5819 5818 5817 5816 5816 5816 5815 5813 5809 5809 5807 5807 5807 5809 5808 5808 5809 5813 5820 5821 5821 5820 5822 5826 5825 5826 5825 5826 5826 5827 5827
5828 5828 5826 5821 5821 5822 5821 5818 5819 5819 5820 5818 5817 5815 5812 5811 5810 5810 5809 5807 5805 5803 5803 5803 5802 5801 5799 5797 5797 5796 5799 5800 5801 5802 5802 5803 5806 5810 5812 5812 5812 5814 5814 5816 5818 5820 5819 5819 5818
5819 5818 5818 5814 5812 5809 5810 5810 5810 5809 5809 5808 5806 5804 5801 5800 5799 5798 5797 5795 5792 5789 5788 5788 5787 5787 5787 5787 5787 5783 5780 5783 5787 5789 5792 5794 5794 5796 5801 5802 5802 5803 5805 5807 5808 5810 5809 5810 5809
5809 5809 5808 5807 5803 5800 5799 5799 5799 5799 5799 5797 5794 5792 5791 5790 5789 5786 5784 5783 5780 5778 5775 5773 5772 5771 5773 5772 5770 5770 5769 5769 5768 5770 5776 5780 5782 5784 5787 5790 5792 5793 5794 5795 5796 5798 5799 5800 5800
5796 5797 5798 5797 5794 5791 5788 5788 5789 5789 5787 5786 5784 5781 5778 5776 5775 5773 5771 5768 5766 5764 5762 5761 5761 5759 5758 5759 5759 5759 5761 5759 5757 5759 5761 5763 5767 5771 5775 5776 5780 5782 5784 5785 5787 5788 5789 5790 5791
5782 5784 5786 5784 5785 5781 5777 5777 5780 5778 5775 5774 5773 5771 5768 5765 5763 5762 5759 5757 5754 5752 5750 5748 5748 5748 5746 5745 5745 5744 5745 5747 5746 5746 5745 5749 5752 5757 5761 5765 5768 5768 5771 5774 5776 5778 5778 5779 5779